Weather in Verkhotulye

Russia / Kirov Oblast     57°46′15″N   48°03′44″E
temp.,
°C
wind,
m/s
gust,
m/s
humid.,
%
clouds,
%
prec.,
mm/h
press.,
hPa
HPBL,
m
7 march, sun
sun700:00−16w129891 0.1 101020
03:00−18wsw129986 0.1 101020
06:00−18ssw129988 0.0 100920
09:00−15ssw249594 0.1 1008201
12:00−11s369294 0.0 1005386
15:00−9sse588997 0.1 1003663
18:00−9sse51293100 0.1 1000685
21:00−9sse61293100 1.1 997783
8 march, mon
mon800:00−8sse51194100 1.1 993718
03:00−7se4995100 2.4 991541
06:00−7sw3895100 1.0 990420
09:00−9wsw498787 1.1 992427
12:00−8sw468953 0.0 994671
15:00−7wsw358777 0.2 995710
18:00−12wnw119253 0.1 99721
21:00−14nnw259749 0.1 99997
9 march, tue
tue900:00−15nnw379697 0.1 1001184
03:00−17nnw379697 0.1 1003230
06:00−19nnw379796 0.1 1006249
09:00−18nnw369495 0.1 1008361
12:00−15nw3590100 0.0 1009492
15:00−14nnw4689100 0.1 1011629
18:00−16nnw3795100 0.1 1012320
21:00−20nnw3897100 0.1 1014258
10 march, wed
wed1000:00−24nnw379875 0.0 1015156
03:00−27nnw369761 0.0 1017126
06:00−29nnw37970 0.0 1019148
09:00−26n36936 0.0 1020305
12:00−20nw35880 0.0 1020456
15:00−17wnw36838 0.0 1020607
18:00−19wnw389567 0.0 1020248
21:00−20wnw389878 0.0 1021195
11 march, thu
thu1100:00−21wnw389872 0.0 1020187
03:00−21w399644 0.0 1021237
06:00−21wnw399680 0.0 1021253
09:00−17wnw479187 0.0 1022324
12:00−11wnw498698 0.0 1022446
15:00−8wnw488394 0.0 1023623
18:00−11w369219 0.0 1024125
21:00−15w33949 0.0 102679